Date,TemperatureHighF,TemperatureAvgF,TemperatureLowF,DewpointHighF,DewpointAvgF,DewpointLowF,HumidityHigh,HumidityAvg,HumidityLow,PressureMaxIn,PressureMinIn,WindSpeedMaxMPH,WindSpeedAvgMPH,GustSpeedMaxMPH,PrecipitationSumIn
2013-4-1,62.4,55.7,50.4,51.1,49.6,47.0,92,81,61,29.79,29.59,8,2,8,0.00
2013-4-2,74.5,58.1,46.4,50.4,45.5,40.0,91,67,32,29.82,29.68,8,2,8,0.00
2013-4-3,69.1,55.0,40.6,54.1,47.0,40.1,98,77,46,29.74,29.50,7,1,7,0.00
2013-4-4,65.8,55.9,50.4,59.3,52.9,47.0,98,90,61,29.53,29.29,17,2,17,0.00
2013-4-5,59.9,53.3,50.5,53.1,50.6,47.8,98,91,68,29.59,29.47,10,2,10,0.00
2013-4-6,58.3,50.8,48.0,51.5,48.5,45.6,98,92,69,29.62,29.35,10,2,10,1.20
2013-4-7,55.9,47.0,37.2,50.4,42.5,33.5,98,85,46,29.62,29.29,23,3,23,0.21
2013-4-8,60.1,46.3,35.4,48.0,39.6,34.9,98,79,47,29.91,29.59,13,1,13,0.00
2013-4-9,67.3,51.1,40.3,47.1,40.1,33.5,98,71,33,29.94,29.82,8,1,8,0.00
2013-4-10,66.0,50.8,40.1,54.1,44.0,38.3,98,80,43,29.94,29.82,10,1,10,0.00
2013-4-11,63.9,47.8,35.2,45.9,35.8,30.7,98,69,33,29.94,29.71,10,2,10,0.12
2013-4-12,66.9,48.8,32.7,46.0,37.4,31.0,98,70,34,29.76,29.47,8,2,8,0.00
2013-4-13,57.7,46.1,34.9,42.7,34.9,26.9,95,68,33,29.74,29.59,13,3,13,0.00
2013-4-14,36.7,36.1,35.2,33.8,33.2,31.2,90,89,85,29.74,29.74,3,1,3,0.00
2013-4-15,56.8,44.6,36.7,44.9,38.2,32.3,98,81,44,29.79,29.56,7,1,7,2.28
2013-4-16,60.3,45.5,33.4,49.5,38.1,32.2,98,78,39,29.97,29.76,3,1,3,0.13
2013-4-17,65.1,47.8,32.4,48.5,37.2,31.2,98,72,33,30.09,29.97,6,1,6,0.00
2013-4-18,72.5,56.3,45.0,46.9,40.6,35.0,89,59,32,30.06,29.94,8,2,8,0.00
2013-4-19,64.4,53.4,48.6,53.3,47.5,42.6,95,81,52,29.94,29.82,10,2,10,0.08
2013-4-20,71.1,55.1,45.3,49.1,42.4,35.5,98,67,32,29.94,29.82,8,2,8,0.00
2013-4-21,67.1,54.9,45.9,47.8,43.2,38.3,90,67,36,29.91,29.82,11,2,11,0.00
2013-4-22,69.3,54.6,42.3,47.4,35.7,25.0,90,54,25,29.97,29.82,15,4,15,0.00
2013-4-23,73.8,54.6,33.4,41.0,31.8,27.2,93,47,21,29.91,29.68,12,3,12,0.00
2013-4-24,78.8,58.6,36.1,40.5,32.4,24.8,92,43,20,29.79,29.56,13,3,13,0.00
2013-4-25,83.3,61.1,38.1,43.5,37.7,34.1,93,49,20,29.76,29.59,8,2,8,0.00
2013-4-26,86.2,64.0,41.9,48.8,42.5,37.0,95,53,19,29.82,29.74,8,2,8,0.00
2013-4-27,82.4,62.5,43.3,47.2,37.4,26.9,88,47,19,29.85,29.76,11,2,11,0.00
2013-4-28,49.5,48.7,48.4,40.7,39.7,38.5,74,71,67,29.85,29.82,3,2,3,0.00
2013-4-29,69.8,56.4,38.3,52.3,37.6,27.0,92,54,24,29.85,29.71,12,3,12,0.00
2013-4-30,64.6,48.1,32.7,38.6,30.8,27.0,93,56,29,30.00,29.82,10,2,10,0.00